Regional Weather Roundup
Issued by NWS

Home | Current Version | Previous Version | Graphics & Text | Print | Product List | Glossary On
Versions: 1 2 3 4 5 6 7 8 9 10 11 12 13 14 15 16 17 18 19 20 21 22 23 24 25 26 27 28 29 30 31 32 33 34 35 36 37 38 39 40 41 42 43 44 45 46 47 48 49 50
000
ASUS45 KCYS 210110
RWRWY

WYOMING REGIONAL WEATHER ROUNDUP
NATIONAL WEATHER SERVICE CHEYENNE WY
700 PM MDT WED AUG 20 2014

NOTE:  "FAIR" INDICATES FEW OR NO CLOUDS BELOW 12,000 FEET
WITH NO SIGNIFICANT WEATHER AND/OR OBSTRUCTIONS TO VISIBILITY.

WYZ001-210200-
YELLOWSTONE NATIONAL PARK

CITY           SKY/WX    TMP DP  RH WIND       PRES   REMARKS
LK YELLOWSTONE   N/A     46  43  89 W13G26    30.20R
W YELLOWSTONE  NOT AVBL

$$
WYZ002>013-054>058-071-098>099-210200-
NORTHERN WYOMING

CITY           SKY/WX    TMP DP  RH WIND       PRES   REMARKS
JACKSON        PTSUNNY   57  50  77 W7        30.09R
CODY           MOSUNNY   73  45  35 SE10      29.90F
GREYBULL       PTSUNNY   81  41  24 N12       29.83S
WORLAND        PTSUNNY   77  46  33 NE5       29.85S
SHERIDAN       PTSUNNY   75  49  39 W6        29.87R
BUFFALO          N/A     74  45  35 MISG      29.94R
GILLETTE       PTCLDY    75  46  35 N8        29.87S
HULETT         FAIR      73  50  43 MISG      29.87
NEWCASTLE      FAIR      81  41  24 N12G17    29.84

$$
WYZ014>020-022>026-101>103-210200-
CENTRAL WYOMING

CITY           SKY/WX    TMP DP  RH WIND       PRES   REMARKS
BIG PINEY      PTSUNNY   60  47  61 S9        30.13R
PINEDALE       MOCLDY    61  43  51 S7        30.13R
DUBOIS         MOCLDY    61  36  39 W6        30.08R
LANDER         CLOUDY    67  44  43 SE12      29.96S
RIVERTON       CLOUDY    72  41  32 S15       29.95R
CASPER         CLOUDY    71  47  42 SW20G28   29.93S
DOUGLAS        CLOUDY    78  46  32 SW12      29.90R

$$
WYZ021-027>030-104>119-210200-
SOUTHERN WYOMING

CITY           SKY/WX    TMP DP  RH WIND       PRES   REMARKS
EVANSTON       MOSUNNY   70  41  34 SW17      30.10R
KEMMERER       CLEAR     68  37  32 W6        30.10S
FORT BRIDGER   MOCLDY    67  47  48 SE10      30.12S
ROCK SPRINGS   CLOUDY    64  44  48 N3        30.09F
DIXON          LGT RAIN  62  52  69 N14       30.12R
RAWLINS        CLOUDY    60  50  69 SW6       30.10F
SARATOGA       MOCLDY    61  46  59 MISG      30.13R
LARAMIE        MOCLDY    66  44  45 W16       30.10R
CHEYENNE       MOCLDY    72  47  40 W9        30.02R
TORRINGTON     CLEAR     82  49  31 W10       29.84R
PINE BLUFFS    FAIR      73  48  40 NW7       29.95R

$$



USA.gov is the U.S. government's official web portal to all federal, state and local government web resources and services.